Tracking 32414 objects as of 4-Dec-2025
HD Live streaming from Space Station
objects crossing your sky now

OPS 7613 (P/L 1)

Track OPS 7613 (P/L 1) now!
10-day predictions
OPS 7613 (P/L 1) is classified as:


NORAD ID: 4256
Int'l Code: 1969-082B
Perigee: 888.1 km
Apogee: 919.8 km
Inclination: 70.0 °
Period: 102.9 minutes
Semi major axis: 7274 km
RCS: 0.5333 m2 (medium)
Launch date: September 30, 1969
Source: United States (US)
Launch site: AIR FORCE WESTERN TEST RANGE (AFWTR)
Your satellite tracking list
Your tracking list is empty




NASA's NSSDC Master Catalog

Two Line Element Set (TLE):
1 04256U 69082B   25338.56982671  .00000251  00000-0  20952-3 0  9996
2 04256  70.0108  23.0832 0021779 313.3916  46.5377 13.99126297863249
Source of the keplerian elements: AFSPC